Crestview, FL

2:15 PM CST on February 20, 2018 (GMT -0600)
Sikes

Weather History for KCEW - June, 2013

Change the Weather History Date:

Saturday, June 29, 2013

  Actual Average Record
Temperature  
Mean Temperature 80 °F -  
Max Temperature 89 °F 91 °F 100 °F (1978)
Min Temperature 71 °F 69 °F 64 °F (1979)
Cooling Degree Days 15    
Growing Degree Days 30 (Base 50)    
Moisture  
Dew Point 71 °F    
Average Humidity 83    
Maximum Humidity 94    
Minimum Humidity 59    
Precipitation  
Precipitation 0.20 in - - ()
Sea Level Pressure  
Sea Level Pressure 29.78 in    
Wind  
Wind Speed 5 mph (SE)    
Max Wind Speed 13 mph    
Max Gust Speed 21 mph    
Visibility 9 miles    
Events Rain , Thunderstorm    
Averages and records for this station are not official NWS values.
T = Trace of Precipitation, MM = Missing Value Source: NWS Daily Summary

Daily Weather History Graph

Daily Weather History Graph

Search for Another Location

Airport or City:

Trip Planner

Search our weather history database for the weather conditions in past years. The results will help you decide how hot, cold, wet, or windy it might be!

Date:

Astronomy

Jun. 29, 2013 Rise Set
Actual Time 5:46 AM CDT 7:53 PM CDT
Civil Twilight 5:18 AM CDT 8:20 PM CDT
Nautical Twilight 4:44 AM CDT 8:54 PM CDT
Astronomical Twilight 4:08 AM CDT 9:30 PM CDT
Moon No Moon Rise 12:26 PM CDT (6/29)
Length of Visible Light 15h 02m
Length of Day
14h 07m
Waning Gibbous, 55% of the Moon is Illuminated
Jun 29
Waning Gibbous
Jun 29
Last Quarter
Jul 8
New
Jul 15
First Quarter
Jul 22
Full

Hourly Weather History & Observations

Time (CDT) Temp. Heat Index Dew Point Humidity Pressure Visibility Wind Dir Wind Speed Gust Speed Precip Events Conditions
12:30 AM 77.0 °F - 73.4 °F 89% 29.81 in 4.0 mi NNW 4.6 mph 18.4 mph 0.06 in Rain , Thunderstorm Thunderstorms and Rain
12:39 AM 75.2 °F - 73.4 °F 94% 29.82 in 10.0 mi NE 12.7 mph 20.7 mph 0.06 in Thunderstorm Thunderstorm
12:53 AM 73.9 °F - 70.0 °F 87% 29.80 in 10.0 mi East 8.1 mph - 0.06 in Thunderstorm Thunderstorm
1:02 AM 73.4 °F - 71.6 °F 94% 29.81 in 10.0 mi ENE 6.9 mph - N/A Thunderstorm Thunderstorm
1:13 AM 73.4 °F - 69.8 °F 88% 29.81 in 10.0 mi NNE 5.8 mph - N/A   Overcast
1:35 AM 73.4 °F - 69.8 °F 88% 29.78 in 10.0 mi East 4.6 mph - N/A   Overcast
1:42 AM 73.4 °F - 71.6 °F 94% 29.79 in 10.0 mi Calm Calm - N/A Thunderstorm Overcast
1:53 AM 73.9 °F - 71.1 °F 91% 29.78 in 10.0 mi ENE 5.8 mph - N/A   Overcast
2:37 AM 73.4 °F - 71.6 °F 94% 29.76 in 10.0 mi Calm Calm - N/A Thunderstorm Mostly Cloudy
2:53 AM 73.9 °F - 71.1 °F 91% 29.75 in 10.0 mi North 4.6 mph - N/A   Mostly Cloudy
3:23 AM 73.4 °F - 71.6 °F 94% 29.78 in 10.0 mi North 4.6 mph - N/A   Mostly Cloudy
3:39 AM 73.4 °F - 69.8 °F 88% 29.78 in 10.0 mi NE 4.6 mph - N/A   Mostly Cloudy
3:43 AM 73.4 °F - 69.8 °F 88% 29.79 in 10.0 mi Calm Calm - N/A Thunderstorm Mostly Cloudy
3:53 AM 73.9 °F - 70.0 °F 87% 29.80 in 10.0 mi Calm Calm - N/A Thunderstorm Mostly Cloudy
4:04 AM 73.4 °F - 69.8 °F 88% 29.81 in 10.0 mi Calm Calm - N/A   Mostly Cloudy
4:27 AM 73.4 °F - 69.8 °F 88% 29.80 in 5.0 mi Variable 3.5 mph - 0.03 in Rain , Thunderstorm Thunderstorms and Rain
4:31 AM 73.4 °F - 69.8 °F 88% 29.80 in 2.0 mi South 4.6 mph - 0.08 in Rain , Thunderstorm Heavy Thunderstorms and Rain
4:38 AM 73.4 °F - 69.8 °F 88% 29.79 in 1.5 mi Calm Calm - 0.14 in Rain , Thunderstorm Heavy Thunderstorms and Rain
4:43 AM 73.4 °F - 69.8 °F 88% 29.78 in 3.0 mi ESE 3.5 mph - 0.14 in Rain , Thunderstorm Light Thunderstorms and Rain
4:53 AM 72.0 °F - 70.0 °F 93% 29.77 in 10.0 mi East 6.9 mph - 0.14 in Rain , Thunderstorm Light Thunderstorms and Rain
5:19 AM 71.6 °F - 69.8 °F 94% 29.78 in 10.0 mi ENE 4.6 mph - 0.00 in   Partly Cloudy
5:53 AM 73.0 °F - 71.1 °F 93% 29.78 in 8.0 mi SE 3.5 mph - 0.00 in Rain Light Rain
6:40 AM 73.4 °F - 71.6 °F 94% 29.80 in 9.0 mi SSE 5.8 mph - 0.00 in   Mostly Cloudy
6:53 AM 73.9 °F - 72.0 °F 93% 29.78 in 7.0 mi South 3.5 mph - 0.00 in   Mostly Cloudy
7:03 AM 73.4 °F - 71.6 °F 94% 29.80 in 7.0 mi SW 3.5 mph - N/A   Overcast
7:39 AM 75.2 °F - 73.4 °F 94% 29.80 in 7.0 mi SSW 5.8 mph - N/A   Scattered Clouds
7:53 AM 75.9 °F - 73.0 °F 91% 29.80 in 9.0 mi SSW 5.8 mph - N/A   Scattered Clouds
8:53 AM 78.1 °F - 73.9 °F 87% 29.80 in 10.0 mi SSW 8.1 mph - N/A   Clear
9:53 AM 80.1 °F 84.5 °F 73.9 °F 81% 29.78 in 10.0 mi WSW 6.9 mph - N/A   Clear
10:53 AM 82.0 °F 86.7 °F 72.0 °F 71% 29.79 in 10.0 mi SW 8.1 mph - N/A   Scattered Clouds
11:53 AM 84.9 °F 90.1 °F 71.1 °F 63% 29.79 in 10.0 mi West 8.1 mph - N/A   Partly Cloudy
12:53 PM 86.0 °F 91.5 °F 71.1 °F 61% 29.78 in 10.0 mi Variable 6.9 mph - N/A   Scattered Clouds
1:53 PM 87.1 °F 92.8 °F 71.1 °F 59% 29.76 in 10.0 mi SW 5.8 mph - N/A   Clear
2:53 PM 87.1 °F 93.6 °F 72.0 °F 61% 29.75 in 10.0 mi Variable 5.8 mph - N/A   Clear
3:53 PM 87.1 °F 93.6 °F 72.0 °F 61% 29.73 in 10.0 mi Variable 3.5 mph - N/A   Clear
4:53 PM 89.1 °F 97.0 °F 73.0 °F 59% 29.71 in 10.0 mi South 11.5 mph - N/A   Partly Cloudy
5:53 PM 86.0 °F 93.0 °F 73.0 °F 65% 29.70 in 10.0 mi SSE 4.6 mph - N/A   Clear
6:53 PM 84.0 °F 91.2 °F 73.9 °F 72% 29.70 in 10.0 mi South 4.6 mph - N/A   Clear
7:53 PM 82.0 °F 87.9 °F 73.9 °F 76% 29.71 in 10.0 mi South 8.1 mph - N/A   Clear
8:53 PM 81.0 °F 85.8 °F 73.0 °F 77% 29.74 in 10.0 mi West 3.5 mph - N/A   Clear
9:53 PM 80.1 °F 84.5 °F 73.9 °F 81% 29.77 in 10.0 mi North 5.8 mph - N/A   Mostly Cloudy
10:12 PM 78.8 °F - 71.6 °F 78% 29.77 in 10.0 mi Calm Calm - N/A   Overcast
10:31 PM 78.8 °F - 69.8 °F 74% 29.76 in 10.0 mi Calm Calm - N/A   Scattered Clouds
10:53 PM 77.0 °F - 70.0 °F 79% 29.76 in 10.0 mi North 4.6 mph - N/A   Scattered Clouds
11:53 PM 73.9 °F - 70.0 °F 87% 29.76 in 10.0 mi East 3.5 mph - N/A   Partly Cloudy